GW4032 Weather Reports


time (UTC)temp
C
wind
direction
speed
KPH
gust
KPH
rain 1hr
cm
rain 24hr
cm
rain mn
cm
humidity
%
barometer
mb
20260505071314 20 195 12.9 12.9 0.00 0.00 0.00 64 995.0
20260505070814 20 193 12.9 16.1 0.00 0.00 0.00 64 995.0
20260505070315 20 202 11.3 17.7 0.00 0.00 0.00 64 995.0
20260505065814 20 204 8.0 14.5 0.00 0.00 0.00 64 995.0
20260505065315 19 211 11.3 14.5 0.00 0.00 0.00 65 995.0
20260505064814 20 189 12.9 14.5 0.00 0.00 0.00 65 995.0
20260505064314 19 213 8.0 11.3 0.00 0.00 0.00 65 995.0
20260505063815 19 194 9.7 14.5 0.00 0.00 0.00 65 995.0
20260505063315 19 180 11.3 11.3 0.00 0.00 0.00 65 995.0
20260505062816 19 208 8.0 11.3 0.00 0.00 0.00 66 995.0
20260505062314 19 191 9.7 11.3 0.00 0.00 0.00 66 995.0
20260505061814 19 198 6.4 14.5 0.00 0.00 0.00 66 995.0
20260505061314 19 214 11.3 11.3 0.00 0.00 0.00 66 995.0
20260505060814 19 196 12.9 12.9 0.00 0.00 0.00 66 995.0
20260505060314 19 200 8.0 8.0 0.00 0.00 0.00 66 995.0
20260505055816 19 203 12.9 12.9 0.00 0.00 0.00 66 995.0
20260505055314 19 205 9.7 9.7 0.00 0.00 0.00 66 995.0
20260505054814 19 226 4.8 6.4 0.00 0.00 0.00 67 995.0
20260505054314 19 207 8.0 9.7 0.00 0.00 0.00 66 995.0
20260505053814 19 203 8.0 8.0 0.00 0.00 0.00 66 995.0
20260505053314 19 205 8.0 8.0 0.00 0.00 0.00 65 996.0
20260505052814 19 183 9.7 11.3 0.00 0.00 0.00 65 996.0
20260505052315 19 195 6.4 8.0 0.00 0.00 0.00 66 996.0
20260505051814 19 200 8.0 8.0 0.00 0.00 0.00 66 996.0
20260505051314 19 212 4.8 6.4 0.00 0.00 0.00 66 996.0
20260505050814 19 180 8.0 9.7 0.00 0.00 0.00 65 996.0
20260505050315 20 196 6.4 8.0 0.00 0.00 0.00 65 996.0
20260505041314 20 204 8.0 8.0 0.00 0.00 0.00 64 997.0
20260505040819 20 202 8.0 9.7 0.00 0.00 0.00 64 997.0
20260505040314 20 198 8.0 9.7 0.00 0.00 0.00 64 997.0
20260505035814 20 204 8.0 9.7 0.00 0.00 0.00 63 997.0
20260505035314 20 207 8.0 9.7 0.00 0.00 0.00 63 997.0
20260505034815 20 198 8.0 11.3 0.00 0.00 0.00 64 997.0
20260505034314 20 197 6.4 8.0 0.00 0.00 0.00 64 997.0
20260505033815 20 205 9.7 11.3 0.00 0.00 0.00 63 997.0
20260505033314 20 209 8.0 8.0 0.00 0.00 0.00 63 997.0
20260505032814 20 200 8.0 8.0 0.00 0.00 0.00 63 997.0
20260505032317 20 209 11.3 12.9 0.00 0.00 0.00 62 997.0
20260505031814 20 182 11.3 11.3 0.00 0.00 0.00 62 997.0
20260505031314 20 197 8.0 8.0 0.00 0.00 0.00 63 997.0
20260505030814 20 212 9.7 9.7 0.00 0.00 0.00 62 997.0
20260505030314 20 206 8.0 11.3 0.00 0.00 0.00 62 997.0
20260505025814 20 203 6.4 8.0 0.00 0.00 0.00 62 997.0
20260505025314 20 202 8.0 8.0 0.00 0.00 0.00 61 997.0
20260505024814 20 216 11.3 14.5 0.00 0.00 0.00 61 996.0
20260505024314 20 212 12.9 12.9 0.00 0.00 0.00 61 996.0
20260505023814 20 196 8.0 8.0 0.00 0.00 0.00 61 996.0
20260505023315 21 222 8.0 9.7 0.00 0.00 0.00 61 996.0
20260505022815 21 202 9.7 11.3 0.00 0.00 0.00 60 996.0
20260505022314 21 201 8.0 9.7 0.00 0.00 0.00 59 996.0
20260505021814 21 199 8.0 14.5 0.00 0.00 0.00 59 996.0
20260505021315 21 196 11.3 11.3 0.00 0.00 0.00 59 996.0
20260505020814 21 201 6.4 6.4 0.00 0.00 0.00 59 996.0
20260505020314 21 213 11.3 11.3 0.00 0.00 0.00 58 996.0
20260505015814 21 219 8.0 9.7 0.00 0.00 0.00 58 996.0
20260505015314 21 204 6.4 9.7 0.00 0.00 0.00 58 996.0
20260505014814 21 206 9.7 9.7 0.00 0.00 0.00 58 995.0
20260505014314 21 195 11.3 12.9 0.00 0.00 0.00 58 995.0
20260505013815 21 196 11.3 12.9 0.00 0.00 0.00 59 995.0
20260505013314 21 193 8.0 11.3 0.00 0.00 0.00 58 995.0
20260505012814 21 199 6.4 9.7 0.00 0.00 0.00 58 995.0
20260505012314 21 201 4.8 4.8 0.00 0.00 0.00 57 995.0
20260505011816 21 204 4.8 4.8 0.00 0.00 0.00 57 995.0
20260505011319 22 196 4.8 6.4 0.00 0.00 0.00 56 995.0
20260505010814 22 180 8.0 8.0 0.00 0.00 0.00 56 995.0
20260505010315 22 203 9.7 9.7 0.00 0.00 0.00 55 995.0
20260505005814 22 182 9.7 9.7 0.00 0.00 0.00 55 995.0
20260505005314 22 199 8.0 9.7 0.00 0.00 0.00 55 995.0
20260505004815 22 213 8.0 8.0 0.00 0.00 0.00 54 995.0
20260505004315 22 194 9.7 11.3 0.00 0.00 0.00 54 995.0
20260505003815 22 198 11.3 11.3 0.00 0.00 0.00 54 995.0
20260505003315 22 197 8.0 8.0 0.00 0.00 0.00 53 995.0
20260505002814 22 177 6.4 11.3 0.00 0.00 0.00 53 995.0
20260505002314 23 180 6.4 6.4 0.00 0.00 0.00 53 995.0
20260505001814 23 208 8.0 9.7 0.00 0.00 0.00 52 995.0
20260505001314 23 224 9.7 11.3 0.00 0.00 0.00 52 995.0
20260505000814 23 212 12.9 16.1 0.00 0.00 0.00 51 995.0
20260505000315 23 190 12.9 12.9 0.00 0.00 0.00 51 995.0
20260504235814 23 186 12.9 14.5 0.00 0.00 0.00 50 995.0
20260504235314 23 203 9.7 9.7 0.00 0.00 0.00 50 995.0
20260504234814 24 190 9.7 11.3 0.00 0.00 0.00 49 995.0
20260504234314 24 227 9.7 17.7 0.00 0.00 0.00 48 995.0
20260504233814 24 180 19.3 19.3 0.00 0.00 0.00 48 995.0
20260504233315 24 219 17.7 17.7 0.00 0.00 0.00 48 995.0
20260504232814 25 168 17.7 25.7 0.00 0.00 0.00 47 995.0
20260504232316 25 169 14.5 16.1 0.00 0.00 0.00 47 995.0
20260504231825 25 219 11.3 11.3 0.00 0.00 0.00 47 995.0
20260504231314 25 159 14.5 17.7 0.00 0.00 0.00 47 995.0
20260504230814 25 199 19.3 27.4 0.00 0.00 0.00 46 995.0
20260504230314 25 195 16.1 16.1 0.00 0.00 0.00 46 995.0
20260504225816 26 203 12.9 12.9 0.00 0.00 0.00 45 995.0
20260504225314 25 180 17.7 20.9 0.00 0.00 0.00 44 995.0
20260504224814 25 221 30.6 35.4 0.00 0.00 0.00 44 995.0
20260504224314 26 200 25.7 27.4 0.00 0.00 0.00 44 995.0
20260504223815 26 197 11.3 11.3 0.00 0.00 0.00 45 995.0
20260504223314 26 203 14.5 14.5 0.00 0.00 0.00 44 995.0
20260504222814 26 217 14.5 16.1 0.00 0.00 0.00 43 995.0
20260504222316 27 170 8.0 14.5 0.00 0.00 0.00 42 995.0
20260504221814 27 177 6.4 14.5 0.00 0.00 0.00 42 995.0
20260504221315 26 215 11.3 17.7 0.00 0.00 0.00 42 995.0
20260504220816 27 189 6.4 8.0 0.00 0.00 0.00 42 995.0
20260504220314 26 211 12.9 12.9 0.00 0.00 0.00 42 995.0
20260504215814 26 194 22.5 24.1 0.00 0.00 0.00 42 995.0
20260504215315 27 201 12.9 29.0 0.00 0.00 0.00 44 995.0
20260504214815 26 206 14.5 17.7 0.00 0.00 0.00 43 995.0
20260504214314 26 218 19.3 24.1 0.00 0.00 0.00 42 995.0
20260504213814 26 272 19.3 30.6 0.00 0.00 0.00 43 995.0
20260504213314 26 194 20.9 20.9 0.00 0.00 0.00 43 995.0
20260504212814 26 206 11.3 16.1 0.00 0.00 0.00 43 995.0
20260504212315 26 180 20.9 25.7 0.00 0.00 0.00 42 995.0
20260504211814 26 190 22.5 27.4 0.00 0.00 0.00 43 995.0
20260504211314 26 187 12.9 25.7 0.00 0.00 0.00 43 995.0
20260504210814 26 216 24.1 24.1 0.00 0.00 0.00 40 995.0
20260504210314 27 238 12.9 12.9 0.00 0.00 0.00 41 995.0
20260504205814 27 217 9.7 24.1 0.00 0.00 0.00 43 996.0
20260504205314 26 171 19.3 20.9 0.00 0.00 0.00 43 996.0
20260504204814 27 196 16.1 24.1 0.00 0.00 0.00 41 996.0
20260504204314 28 238 4.8 8.0 0.00 0.00 0.00 42 996.0
20260504203815 26 202 24.1 25.7 0.00 0.00 0.00 42 996.0
20260504203314 26 186 17.7 27.4 0.00 0.00 0.00 43 996.0
20260504202815 26 182 19.3 19.3 0.00 0.00 0.00 42 996.0
20260504202315 27 205 14.5 20.9 0.00 0.00 0.00 43 996.0
20260504201814 27 183 11.3 14.5 0.00 0.00 0.00 40 996.0
20260504201314 27 201 16.1 16.1 0.00 0.00 0.00 42 997.0
20260504200814 27 222 8.0 12.9 0.00 0.00 0.00 43 997.0
20260504200314 27 226 11.3 14.5 0.00 0.00 0.00 44 997.0
20260504195815 27 222 20.9 33.8 0.00 0.00 0.00 42 997.0
20260504195314 27 210 24.1 24.1 0.00 0.00 0.00 41 997.0
20260504194815 26 225 25.7 29.0 0.00 0.00 0.00 42 997.0
20260504194315 27 213 8.0 8.0 0.00 0.00 0.00 42 997.0
20260504193814 27 252 12.9 22.5 0.00 0.00 0.00 42 997.0
20260504193314 27 240 9.7 17.7 0.00 0.00 0.00 44 997.0
20260504192814 26 201 24.1 33.8 0.00 0.00 0.00 42 997.0
20260504192314 26 205 14.5 17.7 0.00 0.00 0.00 43 997.0
20260504191816 26 219 25.7 25.7 0.00 0.00 0.00 41 997.0
20260504191314 27 203 14.5 19.3 0.00 0.00 0.00 42 997.0
20260504190814 26 200 22.5 32.2 0.00 0.00 0.00 43 997.0
20260504190315 26 198 12.9 33.8 0.00 0.00 0.00 42 997.0
20260504185814 26 231 16.1 17.7 0.00 0.00 0.00 41 997.0
20260504185314 27 180 12.9 25.7 0.00 0.00 0.00 42 997.0
20260504184814 27 198 14.5 20.9 0.00 0.00 0.00 41 997.0
20260504184314 26 202 14.5 19.3 0.00 0.00 0.00 42 997.0
20260504183814 26 245 16.1 25.7 0.00 0.00 0.00 42 997.0
20260504183315 26 231 14.5 17.7 0.00 0.00 0.00 41 997.0
20260504182815 26 216 16.1 24.1 0.00 0.00 0.00 41 997.0
20260504182316 25 196 19.3 40.2 0.00 0.00 0.00 41 997.0
20260504181814 26 162 9.7 11.3 0.00 0.00 0.00 42 997.0
20260504181316 26 200 17.7 25.7 0.00 0.00 0.00 42 997.0
20260504180814 25 212 30.6 30.6 0.00 0.00 0.00 41 997.0
20260504180314 26 228 19.3 20.9 0.00 0.00 0.00 41 997.0
20260504175814 26 206 16.1 20.9 0.00 0.00 0.00 41 997.0
20260504175315 27 213 9.7 11.3 0.00 0.00 0.00 41 997.0
20260504174816 26 185 22.5 25.7 0.00 0.00 0.00 42 997.0
20260504174316 25 203 25.7 25.7 0.00 0.00 0.00 41 997.0
20260504173815 25 180 17.7 17.7 0.00 0.00 0.00 41 997.0
20260504173315 25 214 16.1 19.3 0.00 0.00 0.00 42 997.0
20260504172814 25 194 22.5 30.6 0.00 0.00 0.00 43 997.0
20260504172314 25 213 22.5 35.4 0.00 0.00 0.00 42 998.0
20260504171815 25 208 14.5 20.9 0.00 0.00 0.00 43 998.0
20260504171317 25 201 16.1 16.1 0.00 0.00 0.00 44 998.0
20260504170814 25 205 24.1 24.1 0.00 0.00 0.00 42 998.0
20260504170317 25 172 19.3 20.9 0.00 0.00 0.00 43 998.0
20260504160314 23 215 17.7 27.4 0.00 0.00 0.00 45 998.0
20260504150816 22 223 14.5 14.5 0.00 0.00 0.00 47 999.0
20260504150317 22 185 9.7 9.7 0.00 0.00 0.00 48 999.0
20260504141316 21 184 11.3 11.3 0.00 0.00 0.00 50 1000.0
20260504140816 21 300 11.3 11.3 0.00 0.00 0.00 51 1000.0
20260504140314 21 243 6.4 8.0 0.00 0.00 0.00 52 1000.0
20260504130814 18 194 9.7 12.9 0.00 0.00 0.00 58 1000.0
20260504130314 18 215 6.4 9.7 0.00 0.00 0.00 57 1000.0
20260504120314 16 198 6.4 6.4 0.00 0.00 0.00 62 999.0
20260504110315 17 212 3.2 4.8 0.00 0.00 0.00 60 999.0
20260504100317 18 209 12.9 14.5 0.00 0.00 0.00 58 999.0
20260504081814 17 234 6.4 11.3 0.00 0.00 0.00 63 1000.0
20260504081314 17 198 8.0 8.0 0.00 0.00 0.00 63 1000.0
20260504080814 18 195 9.7 12.9 0.00 0.00 0.00 62 1000.0
20260504080316 18 180 6.4 6.4 0.00 0.00 0.00 62 1000.0